Location: Unspecified
(48.8656°N, 0.0000°E)
Time: 16:02:21
(UTC+00:00)

Vanguard 1 Rocket - Pass Details

Date: 21 June 2019
Orbit: 652 x 4224 km, 34.3° (Epoch: 21 August)

Event Time Altitude Azimuth Distance (km) Brightness Sun altitude
Rises 21:13:14 0° 262° (W) 5,453 11.8 -8.5°
Reaches altitude 10° 21:18:24 10° 250° (WSW) 3,789 10.8 -9.0°
Maximum altitude 21:24:39 21° 205° (SSW) 2,278 9.2 -9.6°
Enters shadow 21:28:38 12° 160° (SSE) 2,447 9.0 -10.0°
Drops below altitude 10° 21:29:01 10° 157° (SSE) 2,521 - -10.1°
Sets 21:31:38 0° 139° (SE) 3,219 - -10.3°
